Oshkosh, WI

2:14 AM CST on December 03, 2016 (GMT -0600)
Wittman Regional

Weather History for KOSH - March, 2014

Change the Weather History Date:

Thursday, March 20, 2014

  Actual Average Record
Temperature  
Mean Temperature 35 °F -  
Max Temperature 42 °F 41 °F 81 °F (2012)
Min Temperature 28 °F 24 °F -4 °F (1965)
Degree Days  
Heating Degree Days 30    
Moisture  
Dew Point 21 °F    
Average Humidity 60    
Maximum Humidity 81    
Minimum Humidity 45    
Precipitation  
Precipitation 0.00 in - - ()
Sea Level Pressure  
Sea Level Pressure 30.00 in    
Wind  
Wind Speed 9 mph (West)    
Max Wind Speed 14 mph    
Max Gust Speed 18 mph    
Visibility 10 miles    
Events      
Averages and records for this station are not official NWS values.
T = Trace of Precipitation, MM = Missing Value Source: NWS Daily Summary

Daily Weather History Graph

Daily Weather History Graph

Search for Another Location

Airport or City:

Trip Planner

Search our weather history database for the weather conditions in past years. The results will help you decide how hot, cold, wet, or windy it might be!

Date:

Astronomy

Mar. 20, 2014 Rise Set
Actual Time 6:57 AM CDT 7:06 PM CDT
Civil Twilight 6:28 AM CDT 7:35 PM CDT
Nautical Twilight 5:54 AM CDT 8:09 PM CDT
Astronomical Twilight 5:20 AM CDT 8:43 PM CDT
Moon 11:35 PM CDT (3/20) 8:55 AM CDT (3/20)
Length of Visible Light 13h 06m
Length of Day
12h 09m
Waning Gibbous, 84% of the Moon is Illuminated
Mar 20
Waning Gibbous
Mar 23
Last Quarter
Mar 30
New
Apr 7
First Quarter
Apr 15
Full

Hourly Weather History & Observations

Time (CDT) Temp. Windchill Dew Point Humidity Pressure Visibility Wind Dir Wind Speed Gust Speed Precip Events Conditions
12:53 AM 33.1 °F 23.9 °F 23.0 °F 66% 29.93 in 10.0 mi West 12.7 mph - N/A   Overcast
1:53 AM 30.9 °F 22.8 °F 19.9 °F 64% 29.94 in 10.0 mi WNW 9.2 mph - N/A   Clear
2:53 AM 30.9 °F 23.5 °F 19.9 °F 64% 29.94 in 10.0 mi West 8.1 mph - N/A   Clear
3:53 AM 30.9 °F 25.2 °F 21.0 °F 67% 29.95 in 10.0 mi West 5.8 mph - N/A   Clear
4:53 AM 32.0 °F 26.4 °F 23.0 °F 69% 29.97 in 10.0 mi West 5.8 mph - N/A   Overcast
5:53 AM 32.0 °F 26.4 °F 24.1 °F 73% 29.99 in 10.0 mi West 5.8 mph - N/A   Overcast
6:53 AM 32.0 °F 27.5 °F 23.0 °F 69% 29.99 in 10.0 mi West 4.6 mph - N/A   Overcast
7:53 AM 33.1 °F 26.9 °F 19.0 °F 56% 30.01 in 10.0 mi West 6.9 mph - N/A   Overcast
8:53 AM 33.1 °F 25.5 °F 19.9 °F 59% 30.02 in 10.0 mi West 9.2 mph - N/A   Overcast
9:53 AM 34.0 °F 25.5 °F 19.0 °F 54% 30.03 in 10.0 mi WNW 11.5 mph - N/A   Overcast
10:53 AM 36.0 °F 28.5 °F 19.9 °F 52% 30.04 in 10.0 mi NW 10.4 mph - N/A   Overcast
11:53 AM 36.0 °F 28.0 °F 19.0 °F 50% 30.04 in 10.0 mi WNW 11.5 mph - N/A   Mostly Cloudy
12:53 PM 37.0 °F 31.0 °F 19.0 °F 48% 30.03 in 10.0 mi WNW 8.1 mph - N/A   Mostly Cloudy
1:53 PM 39.0 °F 32.8 °F 19.9 °F 46% 30.01 in 10.0 mi West 9.2 mph 18.4 mph N/A   Clear
2:53 PM 39.9 °F 32.1 °F 19.9 °F 45% 30.01 in 10.0 mi NNW 13.8 mph - N/A   Clear
3:53 PM 41.0 °F 35.2 °F 21.9 °F 47% 30.00 in 10.0 mi WNW 9.2 mph - N/A   Clear
4:53 PM 42.1 °F 34.9 °F 21.9 °F 45% 29.99 in 10.0 mi NNW 13.8 mph - N/A   Clear
5:53 PM 41.0 °F 35.2 °F 21.9 °F 47% 30.00 in 10.0 mi NNW 9.2 mph - N/A   Clear
6:53 PM 37.0 °F 33.3 °F 21.0 °F 52% 30.01 in 10.0 mi NNW 4.6 mph - N/A   Clear
7:53 PM 33.1 °F - 21.0 °F 61% 30.02 in 10.0 mi Calm Calm - N/A   Clear
8:53 PM 30.9 °F 27.5 °F 21.9 °F 69% 30.04 in 10.0 mi South 3.5 mph - N/A   Clear
9:53 PM 28.9 °F 22.8 °F 21.9 °F 75% 30.04 in 10.0 mi South 5.8 mph - N/A   Clear
10:53 PM 28.0 °F 24.2 °F 23.0 °F 81% 30.04 in 10.0 mi SSW 3.5 mph - N/A   Clear
11:53 PM 28.9 °F 25.2 °F 21.9 °F 75% 30.04 in 10.0 mi South 3.5 mph - N/A   Clear